GFSNIL_sfc_vis_282.txt.gz
Visibility
15.0 15.0 15.0 15.0 15.0 15.0 15.0 15.0 15.0 15.0 15.0 15.0 15.0 15.0 15.0 15.0 15.0 15.0 15.0 15.0 15.0 15.0
15.0 15.0 15.0 15.0 15.0 15.0 15.0 15.0 15.0 15.0 15.0 15.0 15.0 15.0 15.0 15.0 15.0 15.0 15.0 15.0 15.0 14.2
15.0 15.0 15.0 15.0 15.0 15.0 15.0 15.0 15.0 15.0 15.0 15.0 15.0 15.0 15.0 15.0 15.0 15.0 15.0 15.0 15.0 15.0
15.0 15.0 15.0 15.0 15.0 15.0 15.0 15.0 15.0 15.0 15.0 15.0 15.0 15.0 15.0 15.0 15.0 15.0 15.0 15.0 15.0 15.0
15.0 15.0 15.0 15.0 15.0 15.0 3.1 15.0 15.0 14.4 6.6 15.0 15.0 15.0 15.0 15.0 15.0 15.0 15.0 15.0 15.0 15.0
15.0 15.0 15.0 15.0 15.0 15.0 3.8 1.9 6.0 12.6 1.4 4.2 15.0 13.4 15.0 15.0 15.0 15.0 15.0 15.0 15.0 14.4
15.0 15.0 15.0 15.0 15.0 15.0 15.0 0.7 3.4 5.5 1.2 2.1 14.6 15.0 11.5 14.1 15.0 15.0 15.0 15.0 15.0 15.0
15.0 15.0 15.0 14.7 14.3 8.8 4.6 1.8 0.6 0.3 2.2 3.7 3.5 11.6 8.7 15.0 15.0 15.0 15.0 15.0 15.0 15.0
15.0 15.0 15.0 15.0 5.5 4.4 4.6 7.1 0.4 0.2 0.2 0.6 10.8 12.1 4.7 5.9 0.1 8.1 15.0 14.8 15.0 15.0
15.0 14.2 15.0 15.0 8.3 2.2 0.6 0.9 0.4 0.3 0.1 0.2 15.0 14.0 3.3 3.6 0.7 0.2 2.2 5.7 7.2 13.2
15.0 1.1 15.0 15.0 15.0 3.5 3.2 0.6 0.1 0.2 0.3 0.2 10.7 14.0 4.2 5.3 1.2 0.2 12.0 15.0 15.0 15.0
6.2 0.4 4.6 0.4 1.6 0.3 0.1 1.0 0.3 0.1 0.1 0.1 4.1 1.3 5.3 4.7 0.2 0.7 10.2 15.0 15.0 15.0
13.5 0.3 0.3 0.5 0.1 0.4 0.4 0.1 0.1 0.2 0.1 0.2 0.1 0.5 0.4 1.4 0.2 0.5 14.4 15.0 15.0 15.0
15.0 1.2 1.7 0.1 0.3 0.1 0.2 0.2 0.3 0.1 0.3 0.2 0.1 0.1 0.1 0.1 0.1 0.6 11.1 15.0 15.0 15.0

GFSNIL_sfc_vis_285.txt.gz
Visibility
15.0 15.0 15.0 15.0 15.0 15.0 15.0 15.0 15.0 15.0 15.0 15.0 15.0 15.0 15.0 15.0 15.0 15.0 15.0 13.1 12.9 15.0
15.0 15.0 15.0 15.0 15.0 15.0 15.0 15.0 15.0 15.0 15.0 15.0 15.0 15.0 15.0 15.0 15.0 14.9 15.0 15.0 14.4 15.0
15.0 15.0 15.0 15.0 15.0 15.0 15.0 15.0 15.0 15.0 15.0 15.0 15.0 15.0 15.0 14.8 15.0 14.3 13.8 13.5 9.7 11.6
15.0 15.0 15.0 15.0 15.0 15.0 15.0 15.0 15.0 15.0 15.0 15.0 15.0 15.0 14.6 15.0 14.5 12.5 10.5 10.8 10.9 13.4
15.0 15.0 15.0 15.0 15.0 15.0 15.0 15.0 15.0 15.0 15.0 15.0 15.0 15.0 12.7 14.0 15.0 13.3 9.5 11.0 10.4 10.3
15.0 15.0 15.0 15.0 15.0 15.0 15.0 15.0 15.0 15.0 13.9 15.0 15.0 15.0 15.0 14.8 14.6 13.9 12.0 10.7 10.7 9.5
15.0 15.0 15.0 15.0 15.0 14.9 12.7 0.7 7.2 15.0 6.1 15.0 15.0 15.0 14.9 15.0 14.9 15.0 15.0 15.0 10.8 10.4
15.0 15.0 15.0 14.9 15.0 15.0 14.4 6.8 2.6 1.0 11.0 12.8 1.9 13.3 15.0 15.0 15.0 14.4 13.4 14.6 15.0 14.8
15.0 15.0 15.0 15.0 15.0 15.0 15.0 15.0 1.6 0.4 0.1 0.2 1.5 4.2 3.3 3.0 0.1 13.5 15.0 15.0 15.0 15.0
15.0 15.0 15.0 15.0 15.0 15.0 1.3 4.9 3.0 1.9 0.2 0.1 0.3 0.9 0.7 2.1 0.8 0.2 0.4 0.8 11.5 11.1
15.0 15.0 15.0 15.0 15.0 15.0 3.2 0.4 0.2 0.6 1.5 0.1 0.3 0.2 1.3 2.3 0.5 0.5 7.9 10.0 13.0 6.2
15.0 4.2 15.0 13.8 15.0 8.3 0.2 0.6 0.3 0.2 0.1 0.1 0.6 0.6 0.3 0.6 0.3 5.3 10.4 5.1 5.9 12.0
15.0 4.5 0.8 13.4 0.8 3.7 1.6 0.2 0.2 1.0 0.4 0.4 0.1 0.4 0.1 0.1 0.2 8.3 15.0 15.0 15.0 15.0
15.0 5.6 9.6 1.8 3.0 0.4 0.5 0.5 0.4 0.4 7.7 0.6 0.2 0.4 2.0 1.2 0.0 0.1 3.8 14.8 15.0 15.0

GFSNIL_sfc_vis_288.txt.gz
Visibility
15.0 15.0 15.0 15.0 15.0 15.0 15.0 15.0 15.0 15.0 15.0 15.0 15.0 15.0 15.0 15.0 15.0 15.0 15.0 15.0 15.0 15.0
15.0 15.0 15.0 15.0 15.0 15.0 15.0 15.0 15.0 15.0 15.0 15.0 15.0 15.0 15.0 15.0 15.0 15.0 15.0 15.0 15.0 15.0
15.0 15.0 15.0 15.0 15.0 15.0 15.0 15.0 15.0 15.0 15.0 15.0 15.0 15.0 15.0 14.8 14.9 13.7 14.8 15.0 15.0 15.0
15.0 15.0 15.0 15.0 15.0 15.0 15.0 15.0 15.0 15.0 15.0 15.0 15.0 15.0 15.0 15.0 15.0 13.3 14.6 15.0 15.0 14.3
15.0 15.0 15.0 15.0 15.0 15.0 15.0 15.0 15.0 15.0 15.0 15.0 15.0 15.0 15.0 15.0 15.0 14.3 14.4 14.0 12.6 11.7
15.0 15.0 15.0 15.0 15.0 15.0 14.8 15.0 15.0 13.2 15.0 15.0 15.0 15.0 15.0 15.0 15.0 15.0 15.0 14.9 12.1 14.9
15.0 15.0 15.0 15.0 15.0 15.0 10.6 8.7 15.0 15.0 15.0 15.0 15.0 15.0 15.0 15.0 15.0 15.0 14.8 15.0 15.0 14.6
15.0 15.0 15.0 15.0 15.0 15.0 14.7 9.0 12.3 8.2 14.3 14.4 14.4 8.1 14.8 15.0 14.2 10.8 10.4 9.2 8.3 11.6
15.0 15.0 15.0 15.0 15.0 15.0 13.6 12.1 10.4 10.2 3.4 2.6 8.5 10.9 1.0 0.7 0.1 14.8 15.0 10.8 15.0 15.0
15.0 15.0 15.0 15.0 15.0 15.0 11.5 14.1 4.9 2.7 1.2 0.5 3.4 3.0 1.4 1.1 0.5 0.2 0.4 1.4 14.9 7.1
15.0 15.0 15.0 15.0 15.0 15.0 8.0 1.7 4.1 2.3 6.0 0.5 3.1 2.7 0.9 1.9 1.9 2.7 6.6 3.9 2.9 2.5
15.0 15.0 15.0 13.7 13.3 14.1 5.3 8.5 4.2 3.8 1.7 0.5 1.9 3.3 1.9 0.0 2.8 14.1 12.3 14.1 10.7 11.9
15.0 15.0 15.0 11.7 5.2 12.8 10.5 7.5 8.4 9.1 4.1 10.0 1.8 2.9 2.7 0.9 0.0 0.0 0.7 3.5 15.0 14.8
15.0 15.0 15.0 14.3 14.6 11.9 12.7 11.9 15.0 15.0 5.2 15.0 14.6 1.9 6.3 1.4 0.6 1.3 0.1 0.1 8.8 11.2

GFSNIL_sfc_vis_291.txt.gz
Visibility
15.0 15.0 15.0 15.0 15.0 15.0 15.0 15.0 15.0 15.0 15.0 15.0 15.0 15.0 15.0 15.0 15.0 15.0 15.0 15.0 15.0 15.0
15.0 15.0 15.0 15.0 15.0 15.0 15.0 15.0 15.0 15.0 15.0 15.0 15.0 15.0 15.0 15.0 15.0 15.0 15.0 15.0 15.0 15.0
15.0 15.0 15.0 15.0 15.0 15.0 15.0 15.0 15.0 15.0 15.0 15.0 15.0 15.0 15.0 15.0 15.0 15.0 15.0 15.0 15.0 15.0
15.0 15.0 15.0 15.0 15.0 15.0 15.0 15.0 15.0 15.0 15.0 15.0 15.0 15.0 15.0 15.0 15.0 15.0 15.0 15.0 15.0 15.0
15.0 15.0 15.0 15.0 15.0 15.0 15.0 15.0 15.0 15.0 15.0 15.0 15.0 15.0 14.6 15.0 15.0 11.8 10.1 15.0 15.0 15.0
15.0 15.0 15.0 15.0 15.0 15.0 15.0 15.0 15.0 14.3 14.1 9.0 10.3 8.7 14.4 13.2 12.0 14.6 15.0 15.0 13.9 14.6
15.0 15.0 15.0 15.0 15.0 15.0 9.7 8.3 12.2 11.3 8.9 9.0 11.3 10.5 13.0 14.3 13.5 11.6 11.7 14.0 12.7 10.4
15.0 15.0 15.0 15.0 15.0 15.0 15.0 13.7 13.2 12.1 9.1 15.0 15.0 15.0 15.0 5.8 8.7 14.8 14.3 14.4 15.0 14.3
15.0 15.0 15.0 15.0 15.0 15.0 15.0 15.0 15.0 5.9 8.0 3.0 3.7 3.7 1.8 3.3 0.2 0.1 1.1 15.0 15.0 15.0
15.0 15.0 15.0 15.0 15.0 15.0 15.0 15.0 15.0 2.5 7.0 3.4 15.0 2.5 1.5 2.8 0.2 0.1 2.3 0.2 11.1 15.0
15.0 15.0 15.0 15.0 15.0 14.8 15.0 9.8 1.7 15.0 8.8 3.3 15.0 2.9 2.1 1.0 0.3 0.0 0.2 9.8 12.9 2.4
15.0 15.0 15.0 15.0 15.0 14.0 3.5 4.2 15.0 13.9 14.3 5.9 15.0 13.5 3.7 2.1 2.4 0.6 12.3 11.2 1.1 15.0
15.0 15.0 14.5 15.0 4.8 8.9 4.7 3.3 8.7 15.0 15.0 15.0 3.8 15.0 6.2 1.7 0.2 1.6 14.2 15.0 0.1 14.2
15.0 15.0 15.0 10.8 14.8 2.9 4.8 14.3 15.0 15.0 15.0 15.0 15.0 15.0 4.2 2.7 1.9 0.3 0.5 4.6 1.7 4.9

GFSNIL_sfc_vis_294.txt.gz
Visibility
15.0 15.0 15.0 15.0 15.0 15.0 15.0 15.0 15.0 15.0 15.0 15.0 15.0 15.0 15.0 15.0 15.0 15.0 15.0 15.0 15.0 15.0
15.0 15.0 15.0 15.0 15.0 15.0 15.0 15.0 15.0 15.0 15.0 15.0 15.0 15.0 15.0 15.0 15.0 15.0 15.0 15.0 15.0 15.0
15.0 15.0 15.0 15.0 15.0 15.0 15.0 15.0 15.0 15.0 15.0 15.0 15.0 15.0 15.0 15.0 15.0 15.0 15.0 15.0 15.0 15.0
15.0 15.0 15.0 15.0 15.0 15.0 15.0 15.0 15.0 15.0 15.0 15.0 15.0 15.0 15.0 15.0 15.0 15.0 15.0 15.0 15.0 15.0
15.0 15.0 15.0 15.0 15.0 15.0 15.0 15.0 15.0 15.0 15.0 15.0 15.0 15.0 15.0 15.0 15.0 15.0 15.0 15.0 15.0 15.0
15.0 15.0 15.0 15.0 15.0 15.0 15.0 15.0 15.0 15.0 15.0 15.0 15.0 15.0 15.0 15.0 15.0 15.0 15.0 15.0 15.0 15.0
15.0 15.0 15.0 15.0 15.0 15.0 15.0 15.0 15.0 15.0 12.8 14.7 15.0 15.0 15.0 15.0 15.0 15.0 15.0 15.0 15.0 15.0
15.0 15.0 15.0 15.0 15.0 15.0 15.0 15.0 15.0 15.0 15.0 15.0 14.7 13.2 2.7 1.6 4.6 15.0 15.0 15.0 15.0 15.0
15.0 15.0 15.0 15.0 15.0 15.0 15.0 15.0 15.0 15.0 15.0 15.0 14.8 3.3 2.8 3.4 2.3 0.1 0.3 0.1 0.3 14.8
15.0 15.0 15.0 15.0 15.0 15.0 15.0 15.0 15.0 15.0 13.9 11.3 15.0 3.4 2.5 1.5 7.0 0.3 0.1 15.0 9.4 0.8
15.0 15.0 15.0 15.0 15.0 15.0 15.0 15.0 14.8 2.6 15.0 15.0 15.0 9.3 2.9 1.9 0.9 9.6 15.0 13.5 15.0 7.4
15.0 15.0 15.0 15.0 15.0 15.0 10.6 15.0 1.3 11.7 15.0 15.0 15.0 13.6 2.2 11.4 0.2 0.7 15.0 15.0 15.0 15.0
15.0 15.0 15.0 15.0 15.0 15.0 15.0 2.7 9.1 15.0 15.0 15.0 15.0 15.0 4.6 3.0 0.1 0.1 15.0 15.0 15.0 15.0
15.0 15.0 15.0 15.0 15.0 15.0 1.7 10.5 15.0 15.0 15.0 15.0 15.0 15.0 12.9 3.0 1.5 0.3 0.1 14.3 15.0 15.0

GFSNIL_sfc_vis_300.txt.gz
Visibility
15.0 15.0 15.0 15.0 15.0 15.0 15.0 15.0 15.0 15.0 15.0 15.0 15.0 15.0 15.0 15.0 15.0 15.0 15.0 15.0 15.0 15.0
15.0 15.0 15.0 15.0 15.0 15.0 15.0 15.0 15.0 15.0 15.0 15.0 15.0 15.0 15.0 15.0 15.0 15.0 15.0 15.0 15.0 15.0
15.0 15.0 15.0 15.0 15.0 15.0 15.0 15.0 15.0 15.0 15.0 15.0 15.0 15.0 15.0 15.0 15.0 15.0 15.0 15.0 15.0 15.0
15.0 15.0 15.0 15.0 15.0 15.0 15.0 15.0 15.0 15.0 15.0 15.0 15.0 15.0 15.0 15.0 15.0 15.0 15.0 15.0 15.0 15.0
15.0 15.0 15.0 15.0 15.0 15.0 15.0 15.0 15.0 15.0 15.0 15.0 15.0 15.0 15.0 15.0 15.0 15.0 15.0 15.0 15.0 15.0
15.0 15.0 15.0 15.0 15.0 15.0 15.0 15.0 15.0 15.0 15.0 15.0 15.0 15.0 15.0 15.0 15.0 15.0 15.0 15.0 15.0 15.0
15.0 15.0 15.0 15.0 15.0 15.0 15.0 15.0 15.0 15.0 15.0 15.0 15.0 15.0 15.0 15.0 15.0 15.0 15.0 15.0 15.0 15.0
15.0 15.0 15.0 15.0 15.0 15.0 15.0 15.0 15.0 15.0 15.0 15.0 15.0 15.0 15.0 15.0 15.0 14.7 15.0 15.0 15.0 15.0
15.0 15.0 15.0 15.0 15.0 15.0 15.0 15.0 15.0 15.0 15.0 15.0 15.0 15.0 5.6 13.5 0.7 14.9 0.3 0.2 11.9 9.3
15.0 15.0 15.0 15.0 15.0 15.0 15.0 15.0 15.0 15.0 15.0 15.0 15.0 12.4 4.9 3.1 2.6 6.1 15.0 11.3 0.9 15.0
15.0 15.0 15.0 15.0 15.0 15.0 15.0 15.0 15.0 15.0 15.0 8.5 14.9 11.2 5.9 3.9 8.2 0.1 7.5 15.0 15.0 15.0
15.0 15.0 15.0 15.0 15.0 15.0 12.0 15.0 14.2 14.4 15.0 5.6 8.6 15.0 4.2 6.7 15.0 15.0 15.0 15.0 15.0 14.0
15.0 15.0 15.0 15.0 15.0 15.0 15.0 15.0 15.0 14.1 11.1 8.4 15.0 15.0 15.0 5.1 15.0 15.0 9.2 15.0 15.0 14.6
15.0 15.0 15.0 15.0 15.0 15.0 15.0 15.0 9.4 9.2 15.0 15.0 15.0 11.8 13.6 3.6 12.7 15.0 15.0 15.0 10.7 15.0

GFSNIL_sfc_vis_303.txt.gz
Visibility
15.0 15.0 15.0 15.0 15.0 15.0 15.0 15.0 15.0 15.0 15.0 15.0 15.0 15.0 15.0 15.0 15.0 15.0 15.0 15.0 15.0 15.0
15.0 15.0 15.0 15.0 15.0 15.0 15.0 15.0 15.0 15.0 15.0 15.0 15.0 15.0 15.0 15.0 15.0 15.0 15.0 15.0 15.0 15.0
15.0 15.0 15.0 15.0 15.0 15.0 15.0 15.0 15.0 15.0 15.0 15.0 15.0 15.0 15.0 15.0 15.0 15.0 15.0 15.0 15.0 15.0
15.0 15.0 15.0 15.0 15.0 15.0 15.0 15.0 15.0 15.0 15.0 15.0 15.0 15.0 15.0 15.0 15.0 15.0 15.0 15.0 15.0 15.0
15.0 15.0 15.0 15.0 15.0 15.0 15.0 15.0 15.0 15.0 15.0 15.0 15.0 15.0 15.0 15.0 15.0 15.0 15.0 15.0 15.0 15.0
15.0 15.0 15.0 15.0 15.0 15.0 15.0 15.0 15.0 15.0 15.0 15.0 15.0 15.0 15.0 15.0 15.0 15.0 15.0 15.0 15.0 15.0
15.0 15.0 15.0 15.0 15.0 15.0 15.0 15.0 15.0 15.0 15.0 15.0 15.0 15.0 15.0 15.0 15.0 15.0 15.0 15.0 15.0 15.0
15.0 15.0 15.0 15.0 15.0 15.0 15.0 14.6 15.0 15.0 15.0 15.0 15.0 15.0 15.0 15.0 15.0 15.0 15.0 15.0 15.0 15.0
15.0 15.0 15.0 15.0 15.0 15.0 15.0 15.0 15.0 15.0 15.0 15.0 15.0 15.0 6.7 9.8 3.5 1.3 2.3 3.7 8.5 5.1
15.0 15.0 15.0 15.0 15.0 15.0 15.0 15.0 15.0 15.0 15.0 15.0 15.0 15.0 6.6 5.0 4.3 1.1 5.4 14.5 12.7 11.0
15.0 15.0 15.0 15.0 15.0 15.0 13.0 10.0 15.0 15.0 15.0 15.0 15.0 15.0 5.1 4.2 12.8 0.6 6.7 10.0 15.0 15.0
15.0 15.0 15.0 15.0 15.0 15.0 8.9 15.0 13.1 14.4 15.0 4.3 15.0 15.0 7.9 11.9 15.0 15.0 15.0 15.0 15.0 15.0
15.0 15.0 15.0 15.0 15.0 15.0 10.6 15.0 15.0 14.4 15.0 5.3 15.0 15.0 15.0 5.3 15.0 3.5 15.0 15.0 15.0 15.0
15.0 15.0 15.0 13.4 10.7 12.0 15.0 12.3 4.4 9.3 15.0 15.0 14.7 10.9 15.0 14.6 12.4 15.0 13.4 15.0 15.0 15.0

GFSNIL_sfc_vis_306.txt.gz
Visibility
7.3 9.3 6.0 3.9 4.6 15.0 15.0 15.0 15.0 15.0 15.0 15.0 15.0 15.0 15.0 15.0 15.0 15.0 15.0 15.0 15.0 15.0
15.0 15.0 15.0 15.0 15.0 15.0 15.0 15.0 15.0 15.0 15.0 15.0 15.0 15.0 15.0 15.0 15.0 15.0 15.0 15.0 15.0 15.0
15.0 15.0 15.0 15.0 15.0 15.0 15.0 15.0 15.0 15.0 15.0 15.0 15.0 15.0 15.0 15.0 15.0 15.0 15.0 15.0 15.0 15.0
15.0 15.0 15.0 15.0 15.0 15.0 15.0 15.0 15.0 15.0 15.0 15.0 15.0 15.0 15.0 15.0 15.0 15.0 15.0 15.0 15.0 15.0
15.0 15.0 15.0 15.0 15.0 15.0 15.0 15.0 15.0 15.0 15.0 15.0 15.0 15.0 15.0 15.0 15.0 15.0 15.0 15.0 15.0 15.0
15.0 15.0 15.0 15.0 15.0 15.0 15.0 15.0 15.0 15.0 15.0 15.0 15.0 15.0 15.0 15.0 15.0 15.0 15.0 15.0 15.0 15.0
15.0 15.0 15.0 15.0 15.0 15.0 15.0 15.0 15.0 15.0 15.0 15.0 15.0 15.0 15.0 15.0 15.0 15.0 15.0 15.0 15.0 15.0
15.0 15.0 15.0 15.0 15.0 15.0 15.0 15.0 15.0 15.0 15.0 15.0 15.0 15.0 15.0 15.0 15.0 15.0 15.0 15.0 15.0 15.0
15.0 15.0 15.0 15.0 15.0 15.0 15.0 15.0 15.0 15.0 15.0 15.0 15.0 15.0 15.0 13.2 15.0 10.5 6.0 14.6 15.0 15.0
15.0 15.0 15.0 15.0 15.0 15.0 15.0 15.0 15.0 15.0 15.0 15.0 15.0 15.0 12.4 6.0 12.2 2.2 3.4 6.9 6.7 10.4
15.0 15.0 15.0 15.0 15.0 15.0 6.3 12.0 15.0 15.0 15.0 13.2 15.0 15.0 7.7 6.8 14.8 8.1 15.0 14.5 15.0 15.0
15.0 15.0 15.0 15.0 15.0 15.0 4.1 8.9 9.4 14.4 15.0 4.2 14.8 15.0 11.1 5.2 12.8 15.0 15.0 15.0 15.0 15.0
15.0 15.0 15.0 15.0 15.0 15.0 10.9 15.0 15.0 14.4 12.6 9.1 15.0 15.0 15.0 9.6 15.0 15.0 15.0 15.0 15.0 15.0
15.0 15.0 15.0 14.7 8.9 8.2 14.4 11.7 4.1 8.1 15.0 15.0 14.7 9.7 15.0 15.0 15.0 15.0 15.0 15.0 10.4 15.0

GFSNIL_sfc_vis_309.txt.gz
Visibility
12.5 15.0 15.0 15.0 15.0 15.0 15.0 15.0 15.0 15.0 15.0 15.0 15.0 15.0 15.0 15.0 15.0 15.0 15.0 15.0 15.0 15.0
9.0 5.4 3.6 3.1 4.9 15.0 15.0 15.0 15.0 15.0 15.0 15.0 15.0 15.0 15.0 15.0 15.0 15.0 15.0 15.0 15.0 15.0
15.0 15.0 15.0 15.0 15.0 15.0 15.0 15.0 15.0 15.0 15.0 15.0 15.0 15.0 15.0 15.0 15.0 15.0 15.0 15.0 15.0 15.0
15.0 15.0 15.0 15.0 15.0 15.0 15.0 15.0 15.0 15.0 15.0 15.0 15.0 15.0 15.0 15.0 15.0 15.0 15.0 15.0 15.0 15.0
15.0 15.0 15.0 15.0 15.0 15.0 15.0 15.0 15.0 15.0 15.0 15.0 15.0 15.0 15.0 15.0 15.0 15.0 15.0 15.0 15.0 15.0
15.0 15.0 15.0 15.0 15.0 15.0 15.0 15.0 15.0 15.0 15.0 15.0 15.0 15.0 15.0 15.0 15.0 15.0 15.0 15.0 15.0 15.0
15.0 15.0 15.0 15.0 15.0 15.0 15.0 15.0 15.0 15.0 15.0 15.0 15.0 15.0 15.0 15.0 15.0 15.0 15.0 15.0 15.0 15.0
15.0 15.0 15.0 15.0 15.0 15.0 15.0 15.0 15.0 15.0 15.0 15.0 15.0 15.0 15.0 15.0 15.0 15.0 15.0 15.0 15.0 15.0
15.0 15.0 15.0 15.0 15.0 15.0 15.0 15.0 15.0 15.0 15.0 15.0 15.0 15.0 15.0 11.0 0.8 15.0 15.0 15.0 14.9 15.0
15.0 15.0 15.0 15.0 15.0 15.0 15.0 15.0 15.0 15.0 15.0 15.0 15.0 15.0 13.1 7.4 5.3 1.0 1.0 3.4 6.5 4.0
15.0 15.0 15.0 15.0 15.0 15.0 15.0 15.0 15.0 15.0 15.0 15.0 15.0 15.0 7.6 7.7 7.1 6.0 15.0 12.9 15.0 13.7
15.0 15.0 15.0 15.0 15.0 15.0 15.0 15.0 15.0 15.0 15.0 15.0 15.0 15.0 12.9 8.0 5.3 4.0 15.0 15.0 15.0 15.0
15.0 15.0 15.0 15.0 15.0 15.0 15.0 15.0 15.0 15.0 15.0 12.9 14.8 15.0 15.0 9.8 15.0 15.0 15.0 15.0 15.0 15.0
15.0 15.0 15.0 15.0 15.0 15.0 15.0 15.0 15.0 12.6 15.0 15.0 15.0 15.0 15.0 15.0 10.7 3.9 15.0 15.0 15.0 15.0

GFSNIL_sfc_vis_312.txt.gz
Visibility
6.6 2.5 1.7 1.9 2.1 2.2 2.7 4.8 14.1 15.0 15.0 15.0 15.0 15.0 15.0 15.0 15.0 15.0 15.0 15.0 15.0 15.0
14.0 5.4 2.6 3.2 11.5 15.0 15.0 15.0 15.0 15.0 15.0 15.0 15.0 15.0 15.0 15.0 15.0 15.0 15.0 15.0 15.0 15.0
3.6 4.7 4.6 4.8 5.7 12.0 15.0 15.0 15.0 15.0 15.0 15.0 15.0 15.0 15.0 15.0 15.0 15.0 15.0 15.0 15.0 15.0
15.0 15.0 10.9 15.0 15.0 15.0 15.0 15.0 15.0 15.0 15.0 15.0 15.0 15.0 15.0 15.0 15.0 15.0 15.0 15.0 15.0 15.0
15.0 15.0 15.0 15.0 15.0 15.0 15.0 15.0 15.0 15.0 15.0 15.0 15.0 15.0 15.0 15.0 15.0 15.0 15.0 15.0 15.0 15.0
15.0 15.0 15.0 15.0 15.0 15.0 15.0 15.0 15.0 15.0 15.0 15.0 15.0 15.0 15.0 15.0 15.0 15.0 15.0 15.0 15.0 15.0
15.0 15.0 15.0 15.0 15.0 15.0 15.0 15.0 15.0 15.0 15.0 15.0 15.0 15.0 15.0 15.0 15.0 15.0 15.0 15.0 15.0 15.0
15.0 15.0 15.0 15.0 15.0 15.0 15.0 15.0 15.0 15.0 15.0 15.0 15.0 15.0 15.0 15.0 15.0 15.0 15.0 15.0 15.0 15.0
15.0 15.0 15.0 15.0 15.0 15.0 15.0 15.0 15.0 15.0 15.0 15.0 15.0 15.0 15.0 15.0 15.0 15.0 11.1 12.7 15.0 15.0
15.0 15.0 15.0 15.0 15.0 15.0 15.0 15.0 15.0 15.0 15.0 15.0 15.0 15.0 15.0 15.0 15.0 15.0 15.0 6.0 12.9 13.9
15.0 15.0 15.0 15.0 15.0 15.0 15.0 15.0 15.0 15.0 15.0 15.0 15.0 15.0 15.0 8.8 12.5 8.2 11.3 5.8 15.0 9.1
15.0 15.0 15.0 15.0 15.0 15.0 15.0 15.0 15.0 15.0 15.0 15.0 15.0 15.0 15.0 9.6 15.0 15.0 15.0 10.4 15.0 15.0
15.0 15.0 15.0 15.0 15.0 15.0 15.0 15.0 15.0 15.0 15.0 15.0 15.0 15.0 13.0 10.5 7.0 7.7 13.3 15.0 15.0 15.0
15.0 15.0 15.0 15.0 15.0 15.0 15.0 15.0 15.0 15.0 15.0 15.0 15.0 15.0 15.0 15.0 14.9 13.2 7.6 4.5 13.0 15.0